When you browse on this site, cookies collect data to enhance your experience and personalize the content and advertising you see.
Visit our Privacy Policy to learn more. By continuing to use the site, you agree to this use of cookies and data.
  • In Switzerland
  • List of Countries
  • For 7 days
  • Water Temperature
  • Satellite Maps
  • Weather Map
  • Weather Widgets
  • user-avatar
    Login

    Hourly Weather Platonivka

    Today, 17 July, Wednesday

    Time Temperature Precipitation Wind Pressure Humidity
    00:00 +18°C° 0.4 mm 1 mps 745 mmHg 96%
    01:00 +18°C° 0.1 mm 1 mps 745 mmHg 95%
    02:00 +18°C° 0.1 mm 1 mps 746 mmHg 95%
    03:00 +18°C° 0.1 mm 1 mps 746 mmHg 95%
    04:00 +18°C° 0 mm 1 mps 746 mmHg 95%
    05:00 +18°C° 0 mm 1 mps 746 mmHg 95%
    06:00 +18°C° 0 mm 1 mps 746 mmHg 94%
    07:00 +19°C° 0 mm 1 mps 746 mmHg 88%
    08:00 +20°C° 0 mm 1 mps 746 mmHg 82%
    09:00 +22°C° 0 mm 1 mps 746 mmHg 76%
    10:00 +23°C° 0 mm 2 mps 746 mmHg 68%
    11:00 +25°C° 0 mm 2 mps 746 mmHg 61%
    12:00 +26°C° 0 mm 3 mps 746 mmHg 54%
    13:00 +27°C° 0.1 mm 3 mps 746 mmHg 51%
    14:00 +27°C° 0.1 mm 3 mps 746 mmHg 48%
    15:00 +28°C° 0.1 mm 4 mps 746 mmHg 46%
    16:00 +27°C° 0 mm 3 mps 746 mmHg 50%
    17:00 +27°C° 0 mm 3 mps 746 mmHg 53%
    18:00 +26°C° 0 mm 3 mps 746 mmHg 57%
    19:00 +25°C° 0 mm 2 mps 746 mmHg 60%
    20:00 +23°C° 0 mm 2 mps 746 mmHg 63%
    21:00 +22°C° 0 mm 1 mps 746 mmHg 66%
    22:00 +21°C° 0 mm 1 mps 747 mmHg 68%
    23:00 +20°C° 0 mm 1 mps 747 mmHg 69%

    Tomorrow, 18 July, Thursday

    Time Temperature Precipitation Wind Pressure Humidity
    00:00 +19°C° 0 mm 1 mps 747 mmHg 71%
    01:00 +19°C° 0 mm 1 mps 747 mmHg 72%
    02:00 +19°C° 0 mm 1 mps 747 mmHg 73%
    03:00 +18°C° 0 mm 1 mps 747 mmHg 74%
    04:00 +18°C° 0 mm 1 mps 747 mmHg 75%
    05:00 +19°C° 0 mm 1 mps 747 mmHg 75%
    06:00 +19°C° 0 mm 1 mps 747 mmHg 76%
    07:00 +21°C° 0 mm 1 mps 747 mmHg 69%
    08:00 +23°C° 0 mm 1 mps 748 mmHg 62%
    09:00 +24°C° 0 mm 2 mps 748 mmHg 56%
    10:00 +26°C° 0 mm 2 mps 748 mmHg 51%
    11:00 +27°C° 0 mm 3 mps 748 mmHg 46%
    12:00 +28°C° 0 mm 3 mps 748 mmHg 41%
    13:00 +28°C° 0 mm 4 mps 748 mmHg 41%
    14:00 +28°C° 0 mm 4 mps 748 mmHg 41%
    15:00 +28°C° 0 mm 4 mps 748 mmHg 41%
    16:00 +28°C° 0 mm 4 mps 748 mmHg 42%
    17:00 +28°C° 0 mm 3 mps 748 mmHg 43%
    18:00 +28°C° 0 mm 3 mps 748 mmHg 44%
    19:00 +26°C° 0 mm 3 mps 748 mmHg 49%
    20:00 +24°C° 0 mm 3 mps 749 mmHg 54%
    21:00 +21°C° 0 mm 2 mps 749 mmHg 59%
    22:00 +20°C° 0 mm 2 mps 749 mmHg 61%
    23:00 +19°C° 0 mm 2 mps 750 mmHg 63%

    Day after tomorrow, 19 July, Friday

    Time Temperature Precipitation Wind Pressure Humidity
    00:00 +18°C° 0 mm 2 mps 750 mmHg 65%
    01:00 +19°C° 0 mm 1 mps 750 mmHg 67%
    02:00 +18°C° 0 mm 1 mps 750 mmHg 69%
    03:00 +18°C° 0 mm 1 mps 750 mmHg 71%
    04:00 +18°C° 0 mm 1 mps 751 mmHg 71%
    05:00 +18°C° 0 mm 1 mps 751 mmHg 71%
    06:00 +18°C° 0 mm 1 mps 751 mmHg 71%
    07:00 +20°C° 0 mm 1 mps 751 mmHg 66%
    08:00 +21°C° 0 mm 2 mps 751 mmHg 60%
    09:00 +23°C° 0 mm 2 mps 752 mmHg 54%
    10:00 +25°C° 0 mm 2 mps 752 mmHg 51%
    11:00 +26°C° 0 mm 3 mps 752 mmHg 47%
    12:00 +27°C° 0 mm 3 mps 752 mmHg 43%
    13:00 +27°C° 0 mm 3 mps 752 mmHg 42%
    14:00 +28°C° 0 mm 3 mps 751 mmHg 41%
    15:00 +28°C° 0 mm 3 mps 751 mmHg 40%
    16:00 +28°C° 0 mm 3 mps 751 mmHg 41%
    17:00 +28°C° 0 mm 3 mps 752 mmHg 42%
    18:00 +28°C° 0 mm 3 mps 752 mmHg 43%
    19:00 +26°C° 0 mm 3 mps 752 mmHg 48%
    20:00 +24°C° 0 mm 2 mps 752 mmHg 53%
    21:00 +21°C° 0 mm 2 mps 753 mmHg 59%
    22:00 +20°C° 0 mm 2 mps 753 mmHg 63%
    23:00 +21°C° 0 mm 1 mps 753 mmHg 67%

    20 July, Saturday

    Time Temperature Precipitation Wind Pressure Humidity
    00:00 +20°C° 0 mm 1 mps 754 mmHg 71%
    01:00 +19°C° 0 mm 1 mps 754 mmHg 74%
    02:00 +19°C° 0 mm 1 mps 754 mmHg 77%
    03:00 +18°C° 0 mm 1 mps 754 mmHg 79%
    04:00 +19°C° 0 mm 1 mps 754 mmHg 80%
    05:00 +19°C° 0 mm 1 mps 754 mmHg 80%
    06:00 +19°C° 0 mm 1 mps 754 mmHg 80%
    07:00 +21°C° 0 mm 1 mps 755 mmHg 73%
    08:00 +23°C° 0 mm 1 mps 755 mmHg 66%
    09:00 +25°C° 0 mm 1 mps 755 mmHg 59%
    10:00 +26°C° 0 mm 1 mps 755 mmHg 53%
    11:00 +27°C° 0 mm 1 mps 755 mmHg 47%
    12:00 +28°C° 0 mm 1 mps 755 mmHg 41%
    13:00 +29°C° 0 mm 1 mps 755 mmHg 38%
    14:00 +30°C° 0 mm 1 mps 755 mmHg 35%
    15:00 +30°C° 0 mm 1 mps 755 mmHg 33%
    16:00 +30°C° 0 mm 1 mps 755 mmHg 34%
    17:00 +30°C° 0 mm 1 mps 755 mmHg 34%
    18:00 +29°C° 0 mm 1 mps 755 mmHg 35%
    19:00 +28°C° 0 mm 1 mps 755 mmHg 40%
    20:00 +26°C° 0 mm 1 mps 755 mmHg 44%
    21:00 +24°C° 0 mm 1 mps 755 mmHg 49%
    22:00 +23°C° 0 mm 1 mps 755 mmHg 52%
    23:00 +22°C° 0 mm 1 mps 755 mmHg 56%

    21 July, Sunday

    Time Temperature Precipitation Wind Pressure Humidity
    00:00 +21°C° 0 mm 2 mps 755 mmHg 59%
    01:00 +21°C° 0 mm 1 mps 755 mmHg 60%
    02:00 +21°C° 0 mm 1 mps 755 mmHg 61%
    03:00 +20°C° 0 mm 1 mps 755 mmHg 62%
    04:00 +19°C° 0 mm 0 mps 755 mmHg 62%
    05:00 +19°C° 0 mm 0 mps 755 mmHg 63%
    06:00 +19°C° 0 mm 0 mps 755 mmHg 64%
    07:00 +21°C° 0 mm 0 mps 755 mmHg 57%
    08:00 +23°C° 0 mm 0 mps 755 mmHg 51%
    09:00 +25°C° 0 mm 0 mps 755 mmHg 44%
    10:00 +28°C° 0 mm 1 mps 755 mmHg 42%
    11:00 +29°C° 0 mm 1 mps 755 mmHg 39%
    12:00 +30°C° 0 mm 2 mps 755 mmHg 37%
    13:00 +31°C° 0 mm 2 mps 755 mmHg 36%
    14:00 +31°C° 0 mm 2 mps 755 mmHg 36%
    15:00 +31°C° 0 mm 2 mps 754 mmHg 35%
    16:00 +31°C° 0 mm 2 mps 754 mmHg 37%
    17:00 +31°C° 0 mm 2 mps 754 mmHg 38%
    18:00 +31°C° 0 mm 2 mps 754 mmHg 39%
    19:00 +29°C° 0 mm 2 mps 754 mmHg 43%
    20:00 +27°C° 0 mm 1 mps 754 mmHg 47%
    21:00 +25°C° 0 mm 1 mps 754 mmHg 51%
    22:00 +25°C° 0 mm 1 mps 754 mmHg 53%
    23:00 +24°C° 0 mm 1 mps 754 mmHg 55%

    22 July, Monday

    Time Temperature Precipitation Wind Pressure Humidity
    00:00 +23°C° 0 mm 1 mps 754 mmHg 57%
    01:00 +21°C° 0 mm 0 mps 754 mmHg 59%
    02:00 +20°C° 0 mm 0 mps 754 mmHg 61%
    03:00 +20°C° 0 mm 0 mps 754 mmHg 63%
    04:00 +20°C° 0 mm 0 mps 754 mmHg 64%
    05:00 +20°C° 0 mm 0 mps 754 mmHg 64%
    06:00 +21°C° 0 mm 0 mps 754 mmHg 65%
    07:00 +22°C° 0 mm 0 mps 754 mmHg 59%
    08:00 +26°C° 0 mm 1 mps 754 mmHg 53%
    09:00 +28°C° 0 mm 1 mps 754 mmHg 47%
    10:00 +29°C° 0 mm 1 mps 754 mmHg 44%
    11:00 +30°C° 0 mm 1 mps 754 mmHg 41%
    12:00 +32°C° 0 mm 2 mps 754 mmHg 38%
    13:00 +31°C° 0 mm 2 mps 754 mmHg 39%
    14:00 +31°C° 0 mm 2 mps 754 mmHg 40%
    15:00 +31°C° 0 mm 2 mps 754 mmHg 41%
    16:00 +31°C° 0 mm 2 mps 753 mmHg 42%
    17:00 +31°C° 0 mm 2 mps 753 mmHg 44%
    18:00 +30°C° 0 mm 2 mps 753 mmHg 45%
    19:00 +29°C° 0 mm 2 mps 753 mmHg 49%
    20:00 +27°C° 0 mm 2 mps 753 mmHg 53%
    21:00 +26°C° 0 mm 2 mps 753 mmHg 57%
    22:00 +25°C° 0 mm 2 mps 753 mmHg 60%
    23:00 +24°C° 0 mm 2 mps 753 mmHg 63%
    Show more